Location: Esp�n
(42.4593°N, 0.2047°W)
Time: 21:45:47
(UTC+00:00)

Cosmos 1538 Rocket - Pass Details

Date: 07 June 2020
Orbit: 752 x 792 km, 74.0° (Epoch: 04 July)

Event Time Altitude Azimuth Distance (km) Brightness Sun altitude
Exits shadow 03:39:44 - 217° (SW) 2,486 6.0 -7.4°
Reaches altitude 10° 03:40:07 10° 218° (SW) 2,343 5.9 -7.3°
Maximum altitude 03:45:18 51° 294° (WNW) 995 4.5 -6.6°
Drops below altitude 10° 03:50:33 10° 10° (N) 2,367 7.3 -5.8°
Sets 03:53:02 0° 16° (NNE) 3,300 8.3 -5.5°
